This is the latest recevied weather packets stored in our database for station/object KO6HRZ. If no packets are shown the sender has not sent any weather packets the latest 10 day(s).
| Time | Temp. | Humidity | Pressure | Rain* | Wind** | Luminosity | Snow |
|---|---|---|---|---|---|---|---|
| 1777831256 | 17.78° C | 67% | 1013.2 hPa | 0 mm | - | 465 W/m² | - |
| 1777830650 | 17.22° C | 67% | 1013.4 hPa | 0 mm | - | 484 W/m² | - |
| 1777830049 | 17.22° C | 67% | 1013.6 hPa | 0 mm | - | 432 W/m² | - |
| 1777829447 | 17.22° C | 68% | 1013.2 hPa | 0 mm | - | 540 W/m² | - |
| 1777828847 | 16.67° C | 70% | 1013.2 hPa | 0 mm | - | 348 W/m² | - |
| 1777828247 | 16.67° C | 70% | 1013.1 hPa | 0 mm | - | 390 W/m² | - |
| 1777827647 | 16.11° C | 73% | 1013.2 hPa | 0 mm | - | 492 W/m² | - |
| 1777827046 | 15.56° C | 74% | 1012.9 hPa | 0 mm | - | 285 W/m² | - |
| 1777826446 | 15.56° C | 75% | 1012.9 hPa | 0 mm | - | 289 W/m² | - |
| 1777825846 | 15° C | 76% | 1013 hPa | 0 mm | - | 235 W/m² | - |
| 1777825241 | 15° C | 77% | 1012.7 hPa | 0 mm | - | 197 W/m² | - |
| 1777824639 | 14.44° C | 78% | 1012.7 hPa | 0 mm | - | 187 W/m² | - |
| 1777824038 | 14.44° C | 78% | 1012.6 hPa | 0 mm | - | 176 W/m² | - |
| 1777823438 | 15° C | 78% | 1012.7 hPa | 0 mm | - | 193 W/m² | - |
| 1777822838 | 14.44° C | 78% | 1012.6 hPa | 0 mm | - | 215 W/m² | - |
| 1777822234 | 14.44° C | 79% | 1012.4 hPa | 0 mm | - | 162 W/m² | - |
| 1777821629 | 14.44° C | 79% | 1012.4 hPa | 0 mm | - | 254 W/m² | - |
| 1777821029 | 13.89° C | 81% | 1012.4 hPa | 0 mm | - | 151 W/m² | - |
| 1777820427 | 13.33° C | 82% | 1012.2 hPa | 0 mm | - | 127 W/m² | - |
| 1777819822 | 13.33° C | 83% | 1012.3 hPa | 0 mm | - | 125 W/m² | - |
| 1777819217 | 12.78° C | 85% | 1011.9 hPa | 0 mm | - | 102 W/m² | - |
| 1777818615 | 12.78° C | 85% | 1011.8 hPa | 0 mm | - | 85 W/m² | - |
| 1777818014 | 12.78° C | 86% | 1011.5 hPa | 0 mm | - | 70 W/m² | - |
| 1777817409 | 12.22° C | 87% | 1011.4 hPa | 0 mm | - | 51 W/m² | - |
| 1777816808 | 12.22° C | 87% | 1011.2 hPa | 0 mm | - | 39 W/m² | - |
* Rain latest hour (hover to see other rain measurements)
** Current wind speed in m/s (hover to see current wind gust speed)